SCP
0 0 0 0 0 0 0 0 0 0 0 0 0 0 0 0 0 0 0 0 0 0
0 0 0 0 0 0 0 0 0 0 0 0 0 0 0 0 0 0 0 0 0 0
0 0 0 0 0 0 0 0 0 0 0 0 0 0 0 0 0 0 0 0 0 0
0 0 0 0 0 0 0 0 0 0 0 0 0 0 0 0 0 0 0 0 0 0
0 0 0 0 0 0 0 0 0 0 0 0 0 0 0 0 0 0 0 0 0 0
0 0 0 0 0 0 0 0 0 0 0 0 0 0 0 0 0 0 0 0 0 0
0 0 0 0 0 0 0 0 0 0 0 0 0 0 0 0 0 0 0 0 0 0
0 0 0 0 0 0 0 0 0 0 0 0 0 0 0 0 0 -0 0 0 0 0
0 0 0 0 0 0 0 0 0 0 0 0 0 0 0 0 -0 -0 0 0 0 0
0 0 0 0 0 0 0 0 0 0 0 0 0 0 0 0 0 0 0 0 0 0
0 0 0 0 0 0 0 0 0 0 0 0 -0 0 0 0 0 0 0 0 0 0
-0 0 0 0 0 0 0 0 0 0 0 0 0 0 0 0 0 0 0 0 0 0
0 0 0 0 0 0 0 0 0 0 0 0 0 0 0 0 0 0 0 0 0 0
0 0 0 0 0 0 0 0 0 0 0 0 0 0 0 0 0 0 0 0 0 0
Wind_Speed_500mb
14 16 15 15 10 14 16 21 23 30 29 26 26 27 30 33 33 33 33 31 32 33
21 18 16 11 12 18 19 20 19 20 20 22 26 30 32 33 32 31 28 29 29 29
14 10 9 8 8 9 12 12 14 18 21 23 25 26 28 26 24 25 26 26 27 28
8 7 5 5 5 6 8 11 15 18 19 22 24 24 22 21 23 23 23 21 23 26
13 10 4 1 4 7 7 8 11 15 18 22 22 21 18 20 20 20 20 25 29 30
16 10 6 5 6 8 11 12 15 17 19 18 20 19 19 20 19 17 23 27 29 33
15 11 10 10 10 12 13 14 15 16 17 17 20 20 23 22 19 20 23 26 29 31
18 15 17 15 15 15 15 18 17 17 17 18 20 26 30 32 31 28 28 28 31 35
19 17 16 15 14 15 17 16 17 20 21 23 28 27 28 29 27 32 33 34 35 39
16 15 15 14 14 17 16 13 18 19 21 26 25 25 25 26 26 31 31 33 36 41
15 15 16 16 14 16 17 16 18 18 21 23 23 23 23 24 26 28 29 32 39 42
19 18 18 16 19 19 14 15 14 19 21 22 22 26 25 23 25 29 31 36 39 44
20 18 18 18 17 17 10 12 15 16 20 24 21 22 26 29 29 28 30 35 37 39
21 20 17 15 15 10 7 7 7 9 15 18 20 22 23 25 26 30 33 39 43 44
Wind_Direction_500mb
127 124 127 100 85 66 39 20 9 346 338 336 331 331 330 329 327 328 327 328 330 332
110 112 90 80 31 5 355 345 345 339 335 333 332 332 332 333 336 342 344 350 351 350
116 93 77 45 17 347 344 339 326 332 340 339 338 341 348 353 360 4 9 9 2 359
121 91 48 11 9 319 320 328 333 337 341 345 353 359 5 11 17 11 9 5 4 4
119 113 123 46 333 338 344 348 354 358 357 7 11 17 16 16 8 10 10 4 5 9
142 145 119 61 24 23 22 18 14 10 12 25 32 21 17 10 12 11 7 9 10 9
119 93 65 42 26 31 38 41 41 41 49 44 30 21 17 18 23 25 21 16 13 7
92 72 57 54 59 71 79 71 66 66 63 46 35 39 41 43 45 47 37 27 22 17
84 75 73 74 89 93 92 86 80 72 63 42 36 36 37 38 43 38 32 33 29 23
73 66 71 92 102 102 91 87 84 73 54 40 38 42 47 47 40 31 34 30 25 25
76 72 90 99 93 95 103 91 77 65 47 39 42 45 47 41 35 37 33 23 23 20
69 74 91 98 98 91 80 67 59 57 40 36 44 57 57 48 44 43 29 19 18 14
66 86 100 97 77 74 67 56 73 49 38 34 49 54 50 49 50 39 28 16 8 1
88 103 100 93 82 74 37 24 41 31 41 44 59 56 46 37 29 22 15 7 360 356
Wind_Speed_850mb
14 16 15 15 10 14 16 21 23 30 29 26 26 27 30 33 33 33 33 31 32 33
21 18 16 11 12 18 19 20 19 20 20 22 26 30 32 33 32 31 28 29 29 29
14 10 9 8 8 9 12 12 14 18 21 23 25 26 28 26 24 25 26 26 27 28
8 7 5 5 5 6 8 11 15 18 19 22 24 24 22 21 23 23 23 21 23 26
13 10 4 1 4 7 7 8 11 15 18 22 22 21 18 20 20 20 20 25 29 30
16 10 6 5 6 8 11 12 15 17 19 18 20 19 19 20 19 17 23 27 29 33
15 11 10 10 10 12 13 14 15 16 17 17 20 20 23 22 19 20 23 26 29 31
18 15 17 15 15 15 15 18 17 17 17 18 20 26 30 32 31 28 28 28 31 35
19 17 16 15 14 15 17 16 17 20 21 23 28 27 28 29 27 32 33 34 35 39
16 15 15 14 14 17 16 13 18 19 21 26 25 25 25 26 26 31 31 33 36 41
15 15 16 16 14 16 17 16 18 18 21 23 23 23 23 24 26 28 29 32 39 42
19 18 18 16 19 19 14 15 14 19 21 22 22 26 25 23 25 29 31 36 39 44
20 18 18 18 17 17 10 12 15 16 20 24 21 22 26 29 29 28 30 35 37 39
21 20 17 15 15 10 7 7 7 9 15 18 20 22 23 25 26 30 33 39 43 44
Wind_Direction_850mb
127 124 127 100 85 66 39 20 9 346 338 336 331 331 330 329 327 328 327 328 330 332
110 112 90 80 31 5 355 345 345 339 335 333 332 332 332 333 336 342 344 350 351 350
116 93 77 45 17 347 344 339 326 332 340 339 338 341 348 353 360 4 9 9 2 359
121 91 48 11 9 319 320 328 333 337 341 345 353 359 5 11 17 11 9 5 4 4
119 113 123 46 333 338 344 348 354 358 357 7 11 17 16 16 8 10 10 4 5 9
142 145 119 61 24 23 22 18 14 10 12 25 32 21 17 10 12 11 7 9 10 9
119 93 65 42 26 31 38 41 41 41 49 44 30 21 17 18 23 25 21 16 13 7
92 72 57 54 59 71 79 71 66 66 63 46 35 39 41 43 45 47 37 27 22 17
84 75 73 74 89 93 92 86 80 72 63 42 36 36 37 38 43 38 32 33 29 23
73 66 71 92 102 102 91 87 84 73 54 40 38 42 47 47 40 31 34 30 25 25
76 72 90 99 93 95 103 91 77 65 47 39 42 45 47 41 35 37 33 23 23 20
69 74 91 98 98 91 80 67 59 57 40 36 44 57 57 48 44 43 29 19 18 14
66 86 100 97 77 74 67 56 73 49 38 34 49 54 50 49 50 39 28 16 8 1
88 103 100 93 82 74 37 24 41 31 41 44 59 56 46 37 29 22 15 7 360 356